�������l�o���
Date,Time,MP-1(��Sv/h),MP-2(��Sv/h),MP-3(��Sv/h),MP-4(��Sv/h),MP-5(��Sv/h),MP-6(��Sv/h),MP-7(��Sv/h),MP-8(��Sv/h),����,����(m/s),���J
2018/08/03,00:00,0.903,1.290,0.908,1.612,1.179,0.482,0.851,0.799,�k�k��,4.6,��
2018/08/03,00:10,0.901,1.287,0.908,1.616,1.177,0.480,0.847,0.800,�k�k��,4.7,��
2018/08/03,00:20,0.903,1.291,0.909,1.614,1.178,0.482,0.849,0.799,�k�k��,4.4,��
2018/08/03,00:30,0.903,1.289,0.908,1.615,1.179,0.479,0.849,0.800,�k�k��,4.5,��
2018/08/03,00:40,0.900,1.289,0.909,1.611,1.180,0.480,0.846,0.799,�k�k��,4.7,��
2018/08/03,00:50,0.900,1.288,0.907,1.611,1.180,0.482,0.849,0.800,�k�k��,4.2,��
2018/08/03,01:00,0.902,1.288,0.908,1.612,1.180,0.480,0.849,0.798,�k�k��,4.5,��
2018/08/03,01:10,0.900,1.288,0.909,1.613,1.177,0.480,0.849,0.799,�k�k��,5.2,��
2018/08/03,01:20,0.903,1.290,0.909,1.612,1.179,0.481,0.850,0.800,�k�k��,4.7,��
2018/08/03,01:30,0.903,1.290,0.906,1.614,1.179,0.481,0.849,0.799,�k�k��,4.8,��
2018/08/03,01:40,0.903,1.285,0.907,1.614,1.177,0.480,0.848,0.799,�k�k��,4.7,��
2018/08/03,01:50,0.899,1.285,0.910,1.615,1.180,0.480,0.847,0.799,�k�k��,5.1,��
2018/08/03,02:00,0.901,1.287,0.908,1.610,1.176,0.482,0.847,0.799,�k�k��,5.3,��
2018/08/03,02:10,0.902,1.287,0.910,1.613,1.178,0.482,0.847,0.798,�k�k��,5.1,��
2018/08/03,02:20,0.898,1.290,0.910,1.612,1.178,0.482,0.848,0.797,�k�k��,5.4,��
2018/08/03,02:30,0.900,1.288,0.910,1.612,1.178,0.480,0.848,0.800,�k�k��,5.2,��
2018/08/03,02:40,0.899,1.290,0.909,1.609,1.176,0.481,0.848,0.798,�k�k��,5.5,��
2018/08/03,02:50,0.902,1.288,0.908,1.615,1.179,0.480,0.848,0.798,�k�k��,5.2,��
2018/08/03,03:00,0.902,1.288,0.908,1.612,1.178,0.480,0.847,0.798,�k�k��,5.2,��
2018/08/03,03:10,0.901,1.289,0.907,1.613,1.177,0.482,0.847,0.800,�k�k��,5.3,��
2018/08/03,03:20,0.900,1.286,0.908,1.613,1.177,0.480,0.847,0.798,�k�k��,5.5,��
2018/08/03,03:30,0.900,1.289,0.906,1.613,1.178,0.480,0.848,0.800,�k�k��,5.3,��
2018/08/03,03:40,0.901,1.287,0.908,1.613,1.178,0.480,0.848,0.798,�k�k��,4.6,��
2018/08/03,03:50,0.900,1.289,0.910,1.614,1.177,0.480,0.847,0.800,�k�k��,4.8,��
2018/08/03,04:00,0.901,1.287,0.907,1.612,1.177,0.481,0.847,0.801,�k�k��,5.4,��
2018/08/03,04:10,0.902,1.288,0.908,1.611,1.179,0.480,0.847,0.800,�k�k��,5.6,��
2018/08/03,04:20,0.900,1.287,0.908,1.613,1.179,0.482,0.847,0.798,�k�k��,6.2,��
2018/08/03,04:30,0.901,1.287,0.908,1.613,1.178,0.481,0.846,0.799,�k�k��,6.4,��
2018/08/03,04:40,0.899,1.287,0.909,1.613,1.179,0.480,0.847,0.798,�k�k��,5.9,��
2018/08/03,04:50,0.899,1.287,0.909,1.613,1.175,0.480,0.847,0.800,�k�k��,5.4,��
2018/08/03,05:00,0.898,1.289,0.909,1.613,1.176,0.479,0.847,0.799,�k�k��,5.3,��
2018/08/03,05:10,0.901,1.285,0.906,1.610,1.177,0.481,0.847,0.800,�k�k��,5.0,��
2018/08/03,05:20,0.900,1.285,0.907,1.613,1.179,0.480,0.848,0.800,�k�k��,4.0,��
2018/08/03,05:30,0.903,1.288,0.907,1.612,1.175,0.480,0.847,0.799,�k��,3.3,��
2018/08/03,05:40,0.901,1.288,0.908,1.613,1.178,0.482,0.848,0.800,�k�k��,4.6,��
2018/08/03,05:50,0.902,1.289,0.907,1.614,1.176,0.481,0.848,0.799,�k�k��,4.7,��
2018/08/03,06:00,0.902,1.289,0.907,1.611,1.174,0.480,0.849,0.799,�k�k��,5.5,��
2018/08/03,06:10,0.899,1.289,0.907,1.614,1.178,0.479,0.847,0.800,�k�k��,5.9,��
2018/08/03,06:20,0.900,1.289,0.909,1.611,1.177,0.477,0.846,0.800,�k�k��,6.0,��
2018/08/03,06:30,0.902,1.289,0.907,1.613,1.176,0.480,0.848,0.799,�k�k��,5.4,��
2018/08/03,06:40,0.901,1.286,0.906,1.610,1.176,0.481,0.848,0.799,�k�k��,4.0,��
2018/08/03,06:50,0.903,1.286,0.905,1.612,1.179,0.482,0.848,0.798,�k�k��,5.1,��
2018/08/03,07:00,0.904,1.286,0.906,1.613,1.179,0.481,0.850,0.800,�k,3.8,��
2018/08/03,07:10,0.903,1.284,0.907,1.613,1.175,0.479,0.849,0.799,�k�k��,3.6,��
2018/08/03,07:20,0.902,1.285,0.905,1.612,1.178,0.481,0.848,0.798,�k,3.6,��
2018/08/03,07:30,0.902,1.287,0.907,1.613,1.177,0.481,0.848,0.800,�k,3.4,��
2018/08/03,07:40,0.901,1.285,0.907,1.613,1.178,0.480,0.849,0.798,�k,3.0,��
2018/08/03,07:50,0.905,1.286,0.906,1.609,1.176,0.481,0.848,0.801,�k,3.7,��
2018/08/03,08:00,0.902,1.285,0.905,1.611,1.175,0.480,0.850,0.799,�k,4.9,��
2018/08/03,08:10,0.903,1.285,0.907,1.610,1.177,0.481,0.848,0.800,�k�k��,4.7,��
2018/08/03,08:20,0.902,1.287,0.905,1.608,1.175,0.479,0.848,0.801,�k�k��,5.0,��
2018/08/03,08:30,0.902,1.285,0.905,1.611,1.178,0.480,0.848,0.801,�k�k��,4.9,��
2018/08/03,08:40,0.904,1.286,0.905,1.610,1.178,0.480,0.847,0.799,�k�k��,5.7,��
2018/08/03,08:50,0.900,1.287,0.907,1.609,1.177,0.481,0.849,0.798,�k�k��,5.0,��
2018/08/03,09:00,0.899,1.286,0.904,1.612,1.178,0.481,0.848,0.799,�k�k��,5.3,��
2018/08/03,09:10,0.896,1.284,0.906,1.610,1.178,0.478,0.849,0.797,�k�k��,4.8,��
2018/08/03,09:20,0.896,1.284,0.905,1.611,1.177,0.480,0.849,0.799,�k�k��,4.3,��
2018/08/03,09:30,0.894,1.285,0.905,1.611,1.179,0.479,0.849,0.799,�k�k��,4.2,��
2018/08/03,09:40,0.893,1.285,0.904,1.613,1.178,0.479,0.850,0.797,�k�k��,3.8,��
2018/08/03,09:50,0.894,1.287,0.906,1.611,1.179,0.479,0.851,0.798,�k�k��,4.0,��
2018/08/03,10:00,0.896,1.287,0.908,1.610,1.179,0.482,0.849,0.798,�k�k��,3.7,��
2018/08/03,10:10,0.893,1.287,0.906,1.614,1.181,0.480,0.849,0.798,�k��,4.2,��
2018/08/03,10:20,0.897,1.286,0.907,1.614,1.183,0.479,0.849,0.798,�k��,4.6,��
2018/08/03,10:30,0.893,1.288,0.906,1.614,1.179,0.478,0.848,0.799,�k��,4.1,��
2018/08/03,10:40,0.894,1.285,0.906,1.612,1.181,0.480,0.848,0.799,�k��,4.6,��
2018/08/03,10:50,0.894,1.289,0.906,1.614,1.181,0.481,0.849,0.798,�k��,4.8,��
2018/08/03,11:00,0.896,1.288,0.906,1.614,1.183,0.480,0.850,0.799,�k��,5.7,��
2018/08/03,11:10,0.897,1.287,0.906,1.612,1.182,0.479,0.849,0.798,�k��,4.6,��
2018/08/03,11:20,0.894,1.285,0.904,1.609,1.183,0.480,0.849,0.798,�k��,3.9,��
2018/08/03,11:30,0.898,1.286,0.907,1.610,1.182,0.480,0.847,0.800,���k��,3.3,��
2018/08/03,11:40,0.893,1.288,0.908,1.610,1.184,0.481,0.848,0.799,���k��,3.7,��
2018/08/03,11:50,0.893,1.286,0.908,1.610,1.184,0.481,0.850,0.800,���k��,4.5,��
2018/08/03,12:00,0.892,1.289,0.905,1.614,1.185,0.481,0.849,0.799,�k��,3.2,��
2018/08/03,12:10,0.895,1.290,0.907,1.614,1.182,0.482,0.848,0.798,�k��,3.1,��
2018/08/03,12:20,0.889,1.285,0.906,1.609,1.184,0.479,0.848,0.799,���k��,4.7,��
2018/08/03,12:30,0.888,1.290,0.906,1.613,1.184,0.482,0.849,0.799,���k��,4.4,��
2018/08/03,12:40,0.887,1.291,0.907,1.615,1.182,0.481,0.849,0.801,���k��,4.0,��
2018/08/03,12:50,0.890,1.285,0.907,1.614,1.187,0.481,0.850,0.800,���k��,4.1,��
2018/08/03,13:00,0.889,1.287,0.908,1.614,1.185,0.481,0.849,0.800,�k��,4.8,��
2018/08/03,13:10,0.889,1.291,0.907,1.615,1.184,0.482,0.850,0.801,���k��,4.3,��
2018/08/03,13:20,0.887,1.292,0.907,1.616,1.184,0.482,0.848,0.800,���k��,3.9,��
2018/08/03,13:30,0.888,1.289,0.908,1.616,1.184,0.480,0.849,0.799,���k��,3.5,��
2018/08/03,13:40,0.889,1.289,0.909,1.615,1.183,0.478,0.850,0.799,���k��,3.1,��
2018/08/03,13:50,0.889,1.286,0.910,1.614,1.188,0.480,0.850,0.800,��,3.2,��
2018/08/03,14:00,0.888,1.292,0.910,1.616,1.186,0.479,0.847,0.800,��,2.8,��
2018/08/03,14:10,0.891,1.289,0.910,1.613,1.186,0.477,0.851,0.801,���쓌,2.6,��
2018/08/03,14:20,0.889,1.290,0.909,1.617,1.186,0.479,0.855,0.800,�쓌,3.1,��
2018/08/03,14:30,0.890,1.291,0.912,1.615,1.188,0.479,0.851,0.801,���쓌,2.3,��
2018/08/03,14:40,0.889,1.289,0.910,1.613,1.189,0.478,0.851,0.803,��,1.7,��
2018/08/03,14:50,0.890,1.291,0.912,1.616,1.188,0.479,0.853,0.803,�쓌,3.0,��
2018/08/03,15:00,0.889,1.290,0.911,1.615,1.188,0.481,0.853,0.802,�쓌,1.7,��
2018/08/03,15:10,0.887,1.290,0.908,1.612,1.187,0.481,0.853,0.802,���쓌,2.3,��
2018/08/03,15:20,0.890,1.290,0.909,1.616,1.187,0.479,0.852,0.801,�쓌,1.7,��
2018/08/03,15:30,0.889,1.292,0.910,1.618,1.191,0.480,0.854,0.802,���쓌,2.5,��
2018/08/03,15:40,0.892,1.291,0.908,1.615,1.187,0.479,0.852,0.802,���쓌,2.2,��
2018/08/03,15:50,0.889,1.294,0.909,1.619,1.188,0.482,0.852,0.800,��쓌,2.0,��
2018/08/03,16:00,0.889,1.290,0.911,1.617,1.188,0.481,0.852,0.799,��쓌,2.5,��
2018/08/03,16:10,0.889,1.293,0.909,1.618,1.192,0.478,0.851,0.799,��쓌,3.4,��
2018/08/03,16:20,0.887,1.295,0.908,1.620,1.188,0.481,0.853,0.799,�쓌,1.9,��
2018/08/03,16:30,0.891,1.293,0.909,1.620,1.187,0.480,0.851,0.801,�쓌,2.6,��
2018/08/03,16:40,0.889,1.294,0.910,1.620,1.189,0.483,0.851,0.801,��쓌,2.6,��
2018/08/03,16:50,0.889,1.294,0.909,1.621,1.187,0.482,0.850,0.801,��쓌,2.3,��
2018/08/03,17:00,0.888,1.292,0.909,1.619,1.188,0.480,0.851,0.803,��쓌,2.0,��
2018/08/03,17:10,0.890,1.292,0.910,1.619,1.187,0.480,0.850,0.803,��,1.5,��
2018/08/03,17:20,0.889,1.292,0.910,1.620,1.186,0.481,0.850,0.801,��쓌,1.5,��
2018/08/03,17:30,0.890,1.292,0.907,1.620,1.187,0.480,0.850,0.801,��쓌,2.0,��
2018/08/03,17:40,0.888,1.294,0.911,1.619,1.186,0.482,0.848,0.801,��쐼,2.0,��
2018/08/03,17:50,0.889,1.291,0.910,1.619,1.185,0.482,0.850,0.801,�쐼,2.0,��
2018/08/03,18:00,0.890,1.290,0.910,1.622,1.183,0.481,0.850,0.801,�쐼,2.6,��
2018/08/03,18:10,0.890,1.291,0.910,1.620,1.186,0.482,0.851,0.801,�쐼,2.3,��
2018/08/03,18:20,0.888,1.293,0.910,1.620,1.185,0.482,0.850,0.801,�쐼,2.0,��
2018/08/03,18:30,0.889,1.291,0.911,1.620,1.186,0.480,0.849,0.802,��,2.0,��
2018/08/03,18:40,0.888,1.291,0.909,1.620,1.184,0.482,0.850,0.802,���쐼,1.5,��
2018/08/03,18:50,0.890,1.290,0.910,1.619,1.184,0.482,0.849,0.798,���쐼,1.7,��
2018/08/03,19:00,0.888,1.291,0.909,1.620,1.185,0.480,0.849,0.802,��,0.8,��
2018/08/03,19:10,0.888,1.292,0.910,1.621,1.183,0.480,0.850,0.801,���쐼,0.8,��
2018/08/03,19:20,0.889,1.292,0.908,1.619,1.185,0.480,0.850,0.802,��쐼,0.8,��
2018/08/03,19:30,0.890,1.294,0.908,1.617,1.186,0.482,0.851,0.800,��쓌,1.1,��
2018/08/03,19:40,0.888,1.289,0.908,1.619,1.186,0.480,0.849,0.801,�쓌,0.8,��
2018/08/03,19:50,0.887,1.291,0.910,1.619,1.185,0.480,0.850,0.800,�쓌,1.5,��
2018/08/03,20:00,0.887,1.293,0.908,1.615,1.185,0.482,0.850,0.799,��,1.4,��
2018/08/03,20:10,0.890,1.293,0.910,1.618,1.183,0.482,0.849,0.801,��,1.1,��
2018/08/03,20:20,0.888,1.290,0.910,1.621,1.184,0.481,0.852,0.799,��,2.0,��
2018/08/03,20:30,0.888,1.292,0.909,1.619,1.188,0.481,0.849,0.801,��,1.7,��
2018/08/03,20:40,0.889,1.290,0.909,1.620,1.186,0.483,0.849,0.801,��쓌,1.5,��
2018/08/03,20:50,0.887,1.292,0.908,1.619,1.188,0.481,0.850,0.800,��,1.7,��
2018/08/03,21:00,0.888,1.292,0.909,1.620,1.186,0.482,0.850,0.800,��,1.4,��
2018/08/03,21:10,0.888,1.292,0.911,1.618,1.186,0.481,0.850,0.799,��쐼,1.9,��
2018/08/03,21:20,0.889,1.291,0.909,1.618,1.186,0.481,0.848,0.801,��,2.6,��
2018/08/03,21:30,0.886,1.291,0.909,1.620,1.185,0.481,0.849,0.800,��쐼,2.3,��
2018/08/03,21:40,0.890,1.294,0.910,1.618,1.185,0.482,0.848,0.800,��쐼,2.2,��
2018/08/03,21:50,0.890,1.292,0.909,1.618,1.187,0.481,0.849,0.801,��,2.3,��
2018/08/03,22:00,0.887,1.293,0.910,1.621,1.187,0.482,0.849,0.801,��쐼,1.5,��
2018/08/03,22:10,0.887,1.290,0.911,1.621,1.186,0.482,0.847,0.800,�쐼,1.9,��
2018/08/03,22:20,0.889,1.293,0.911,1.622,1.189,0.481,0.851,0.801,��쐼,2.0,��
2018/08/03,22:30,0.888,1.291,0.908,1.621,1.185,0.481,0.850,0.799,�쐼,1.5,��
2018/08/03,22:40,0.887,1.291,0.911,1.622,1.185,0.481,0.849,0.800,�쐼,1.7,��
2018/08/03,22:50,0.887,1.291,0.910,1.618,1.185,0.482,0.849,0.800,��쐼,1.7,��
2018/08/03,23:00,0.887,1.292,0.909,1.622,1.184,0.481,0.848,0.800,��쐼,1.9,��
2018/08/03,23:10,0.889,1.291,0.909,1.621,1.184,0.481,0.849,0.801,��,2.2,��
2018/08/03,23:20,0.888,1.294,0.909,1.615,1.186,0.482,0.850,0.801,��쐼,1.9,��
2018/08/03,23:30,0.889,1.291,0.908,1.616,1.186,0.482,0.849,0.801,���쐼,1.4,��
2018/08/03,23:40,0.887,1.291,0.908,1.620,1.184,0.482,0.850,0.798,���k��,1.2,��
2018/08/03,23:50,0.887,1.293,0.910,1.620,1.183,0.480,0.848,0.800,���k��,1.4,��
